This is the latest recevied weather packets stored in our database for station/object SQ5DCP-1. If no packets are shown the sender has not sent any weather packets the latest 10 day(s).
| Time | Temp. | Humidity | Pressure | Rain* | Wind** | Luminosity | Snow |
|---|---|---|---|---|---|---|---|
| 1787896849 | 14.44° C | 71% | 1023.1 hPa | 0 mm | - | - | - |
| 1787896818 | 14.44° C | 71% | 1023.1 hPa | 0 mm | - | - | - |
| 1787896727 | 11.67° C | 73% | 1023.2 hPa | 0 mm | - | - | - |
| 1787896516 | 13.89° C | 71% | 1023.1 hPa | 0 mm | - | - | - |
| 1787896234 | 13.89° C | 72% | 1023 hPa | 0 mm | - | - | - |
| 1787895932 | 13.33° C | 72% | 1023.1 hPa | 0 mm | - | - | - |
| 1787895746 | 11.67° C | 71% | 1023 hPa | 0 mm | - | - | - |
| 1787895630 | 13.33° C | 73% | 1023.2 hPa | 0 mm | - | - | - |
| 1787895328 | 13.33° C | 73% | 1023.1 hPa | 0 mm | - | - | - |
| 1787895249 | 11.67° C | 71% | 1023.1 hPa | 0 mm | - | - | - |
| 1787895188 | 11.67° C | 71% | 1023.1 hPa | 0 mm | - | - | - |
| 1787895138 | 11.67° C | 71% | 1023.1 hPa | 0 mm | - | - | - |
| 1787895027 | 12.78° C | 74% | 1023.1 hPa | 0 mm | - | - | - |
| 1787894724 | 12.78° C | 74% | 1023.1 hPa | 0 mm | - | - | - |
| 1787894456 | 12.78° C | 74% | 1023.2 hPa | 0 mm | - | - | - |
| 1787894422 | 12.78° C | 74% | 1023.2 hPa | 0 mm | - | - | - |
| 1787894120 | 12.22° C | 74% | 1023.2 hPa | 0 mm | - | - | - |
| 1787893818 | 12.22° C | 74% | 1023.2 hPa | 0 mm | - | - | - |
| 1787893801 | 11.67° C | 71% | 1023.1 hPa | 0 mm | - | - | - |
| 1787893516 | 12.22° C | 73% | 1023.2 hPa | 0 mm | - | - | - |
| 1787893469 | 12.22° C | 73% | 1023.2 hPa | 0 mm | - | - | - |
| 1787893358 | 12.22° C | 73% | 1023.2 hPa | 0 mm | - | - | - |
| 1787893234 | 12.22° C | 73% | 1023.2 hPa | 0 mm | - | - | - |
| 1787892933 | 12.22° C | 73% | 1023.2 hPa | 0 mm | - | - | - |
| 1787892872 | 11.67° C | 73% | 1023.2 hPa | 0 mm | - | - | - |
* Rain latest hour (hover to see other rain measurements)
** Current wind speed in m/s (hover to see current wind gust speed)